K7WBM Weather Reports


time (UTC)temp
C
wind
direction
speed
KPH
gust
KPH
rain 1hr
cm
rain 24hr
cm
rain mn
cm
humidity
%
barometer
mb
20260506081537 9 0 0.0 3.2 0.00 0.58 0.00 86 1014.1
20260506073038 9 0 0.0 4.8 0.00 0.71 0.00 86 1013.9
20260506071535 9 0 0.0 3.2 0.00 0.71 0.00 87 1013.7
20260506061538 9 0 0.0 0.0 0.00 0.71 0.71 86 1013.1
20260506044546 10 0 0.0 3.2 0.05 0.71 0.71 78 1012.2
20260506043040 11 0 0.0 3.2 0.13 0.71 0.71 74 1012.1
20260506041548 11 151 1.6 9.7 0.13 0.71 0.71 73 1011.8
20260506040040 12 269 0.0 12.9 0.13 0.71 0.71 69 1011.8
20260506034539 16 111 9.7 19.3 0.05 0.64 0.64 58 1013.2
20260506033038 16 142 1.6 6.4 0.00 0.58 0.58 60 1011.3
20260506031538 16 141 3.2 4.8 0.00 0.58 0.58 59 1011.1
20260506030037 16 141 1.6 3.2 0.00 0.58 0.58 56 1010.8
20260506024539 16 181 0.0 1.6 0.00 0.58 0.58 52 1010.4
20260506023040 17 0 0.0 3.2 0.00 0.58 0.58 51 1010.3
20260506021546 17 158 1.6 6.4 0.00 0.58 0.58 50 1010.2
20260506020037 18 0 1.6 6.4 0.00 0.58 0.58 46 1010.3
20260506014537 19 144 1.6 8.0 0.00 0.58 0.58 44 1010.3
20260506013044 20 146 0.0 9.7 0.00 0.58 0.58 44 1010.1
20260506011604 20 154 3.2 11.3 0.00 0.58 0.58 44 1010.2
20260506010039 20 131 3.2 8.0 0.00 0.58 0.58 44 1010.1
20260506004543 20 0 0.0 9.7 0.00 0.58 0.58 46 1010.1
20260506003038 20 124 3.2 8.0 0.00 0.58 0.58 45 1010.2
20260506001536 20 0 1.6 8.0 0.00 0.58 0.58 45 1010.2
20260506000046 20 143 3.2 6.4 0.00 0.58 0.58 45 1010.4
20260505234535 21 150 0.0 8.0 0.00 0.58 0.58 45 1010.5
20260505233038 20 208 0.0 6.4 0.00 0.58 0.58 47 1010.6
20260505231541 20 0 1.6 9.7 0.00 0.58 0.58 46 1010.9
20260505230038 20 0 1.6 6.4 0.00 0.58 0.58 51 1010.9
20260505224537 19 126 1.6 8.0 0.00 0.58 0.58 52 1011.0
20260505223036 20 80 0.0 6.4 0.00 0.58 0.58 53 1011.2
20260505221535 18 0 0.0 9.7 0.00 0.58 0.58 50 1011.5
20260505220051 19 0 3.2 9.7 0.00 0.58 0.58 48 1011.7
20260505214543 19 0 0.0 8.0 0.00 0.61 0.58 51 1011.8
20260505213039 19 155 3.2 9.7 0.00 0.61 0.58 53 1012.0
20260505211539 18 94 1.6 8.0 0.00 0.61 0.58 56 1012.0
20260505210046 18 225 3.2 11.3 0.00 0.61 0.58 54 1012.1
20260505204547 18 300 1.6 8.0 0.00 0.61 0.58 55 1012.2
20260505203038 18 0 0.0 11.3 0.00 0.61 0.58 53 1012.4
20260505201541 17 97 0.0 9.7 0.00 0.61 0.58 56 1012.4
20260505200037 17 221 1.6 9.7 0.00 0.61 0.58 56 1012.4
20260505194532 17 98 1.6 4.8 0.00 0.61 0.58 59 1012.4
20260505193042 17 132 0.0 6.4 0.00 0.61 0.58 58 1012.4
20260505191537 16 0 0.0 4.8 0.00 0.61 0.58 63 1012.4
20260505190037 16 323 1.6 11.3 0.00 0.61 0.58 65 1012.4
20260505184537 15 295 0.0 4.8 0.00 0.61 0.58 69 1012.4
20260505183048 15 0 0.0 8.0 0.00 0.61 0.58 72 1012.3
20260505181535 14 0 0.0 6.4 0.00 0.61 0.58 74 1012.4
20260505180040 13 153 0.0 4.8 0.00 0.61 0.58 79 1012.2
20260505174537 12 0 1.6 6.4 0.00 0.61 0.58 83 1012.2
20260505173038 11 0 0.0 4.8 0.00 0.61 0.58 89 1012.1
20260505171537 11 0 0.0 3.2 0.00 0.61 0.58 91 1012.1
20260505170038 10 0 0.0 1.6 0.00 0.61 0.58 92 1012.0
20260505164553 10 0 0.0 3.2 0.00 0.61 0.58 92 1011.9
20260505163039 10 0 0.0 3.2 0.00 0.61 0.58 93 1011.7
20260505161549 10 0 0.0 4.8 0.00 0.61 0.58 94 1011.7
20260505153036 9 0 0.0 3.2 0.00 0.61 0.58 93 1011.2
20260505151538 9 0 0.0 0.0 0.00 0.61 0.58 94 1011.2
20260505124545 8 128 1.6 4.8 0.15 0.56 0.53 92 1009.9
20260505123038 8 136 1.6 8.0 0.08 0.48 0.46 91 1009.8
20260505121539 8 138 0.0 3.2 0.03 0.43 0.41 91 1009.6
20260505120048 8 0 0.0 0.0 0.00 0.41 0.38 91 1009.2
20260505114536 8 0 0.0 0.0 0.00 0.41 0.38 91 1009.0
20260505113038 8 0 0.0 3.2 0.00 0.41 0.38 91 1008.8
20260505111538 8 0 0.0 3.2 0.00 0.41 0.38 91 1008.8
20260505101539 8 0 0.0 1.6 0.10 0.41 0.38 90 1008.7
20260505100039 8 245 0.0 8.0 0.13 0.41 0.38 90 1008.8
20260505094539 8 278 3.2 12.9 0.15 0.41 0.38 90 1008.7
20260505093038 8 157 0.0 4.8 0.08 0.33 0.30 90 1009.1
20260505091540 8 70 1.6 11.3 0.08 0.30 0.28 89 1009.0
20260505090034 9 266 1.6 9.7 0.13 0.28 0.25 89 1009.0
20260505084547 8 299 0.0 1.6 0.18 0.25 0.23 87 1008.7
20260505083046 8 280 0.0 4.8 0.23 0.25 0.23 86 1008.7